Change the Weather History Date:

Saturday, March 29, 2014

  Actual Average Record
Temperature  
Mean Temperature 34 °F -  
Max Temperature 37 °F 47 °F 76 °F (1963)
Min Temperature 28 °F 32 °F 10 °F (1969)
Degree Days  
Heating Degree Days 32    
Moisture  
Dew Point 26 °F    
Average Humidity 75    
Maximum Humidity 89    
Minimum Humidity 46    
Precipitation  
Precipitation 0.00 in - - ()
Sea Level Pressure  
Sea Level Pressure 30.25 in    
Wind  
Wind Speed 10 mph (NNE)    
Max Wind Speed 20 mph    
Max Gust Speed 23 mph    
Visibility 10 miles    
Events      
Averages and records for this station are not official NWS values.
T = Trace of Precipitation, MM = Missing Value Source: NWS Daily Summary

Daily Weather History Graph

Daily Weather History Graph

Search for Another Location

Airport or City:

Trip Planner

Search our weather history database for the weather conditions in past years. The results will help you decide how hot, cold, wet, or windy it might be!

Date:

Astronomy

Mar. 29, 2014 Rise Set
Actual Time 6:38 AM CDT 7:13 PM CDT
Civil Twilight 6:10 AM CDT 7:42 PM CDT
Nautical Twilight 5:36 AM CDT 8:16 PM CDT
Astronomical Twilight 5:02 AM CDT 8:50 PM CDT
Moon 5:48 AM CDT (3/29) 6:17 PM CDT (3/29)
Length of Visible Light 13h 32m
Length of Day
12h 35m
Waning Crescent, 2% of the Moon is Illuminated
Mar 29
Waning Crescent
Mar 30
New
Apr 7
First Quarter
Apr 15
Full
Apr 22
Last Quarter

Hourly Weather History & Observations

Time (CDT) Temp. Windchill Dew Point Humidity Pressure Visibility Wind Dir Wind Speed Gust Speed Precip Events Conditions
12:53 AM 33.1 °F 27.7 °F 27.0 °F 78% 30.25 in 10.0 mi ESE 5.8 mph - N/A   Overcast
1:53 AM 32.0 °F - 26.1 °F 79% 30.25 in 10.0 mi Calm Calm - N/A   Overcast
2:53 AM 30.0 °F 25.2 °F 26.1 °F 85% 30.25 in 10.0 mi North 4.6 mph - N/A   Mostly Cloudy
3:53 AM 30.9 °F 23.5 °F 26.1 °F 82% 30.22 in 10.0 mi NE 8.1 mph - N/A   Overcast
4:15 AM 32.0 °F 24.2 °F 27.0 °F 82% 30.20 in 10.0 mi NNE 9.2 mph - N/A   Overcast
4:53 AM 30.9 °F 22.8 °F 27.0 °F 85% 30.22 in 10.0 mi NNE 9.2 mph - N/A   Overcast
5:19 AM 30.9 °F 23.5 °F 28.0 °F 89% 30.19 in 10.0 mi NNE 8.1 mph - N/A   Overcast
5:53 AM 32.0 °F 24.8 °F 28.0 °F 85% 30.23 in 10.0 mi NE 8.1 mph - N/A   Overcast
6:53 AM 32.0 °F 22.5 °F 27.0 °F 82% 30.25 in 10.0 mi NNE 12.7 mph - N/A   Overcast
7:43 AM 32.0 °F 23.0 °F 27.0 °F 82% 30.23 in 10.0 mi NE 11.5 mph - N/A   Overcast
7:53 AM 32.0 °F 22.5 °F 28.0 °F 85% 30.26 in 10.0 mi NNE 12.7 mph - N/A   Overcast
8:28 AM 32.0 °F 22.5 °F 28.0 °F 85% 30.24 in 10.0 mi NNE 12.7 mph - N/A   Overcast
8:53 AM 33.1 °F 23.0 °F 28.0 °F 82% 30.26 in 10.0 mi NNE 15.0 mph - N/A   Overcast
9:00 AM 33.1 °F 23.9 °F 28.0 °F 82% 30.24 in 10.0 mi NNE 12.7 mph - N/A   Overcast
9:53 AM 33.1 °F 22.2 °F 28.0 °F 82% 30.28 in 10.0 mi NNE 17.3 mph - N/A   Overcast
10:19 AM 34.0 °F 23.8 °F 28.0 °F 79% 30.26 in 10.0 mi NNE 16.1 mph - N/A   Overcast
10:53 AM 34.0 °F 23.4 °F 28.0 °F 79% 30.29 in 10.0 mi NNE 17.3 mph 20.7 mph N/A   Overcast
11:53 AM 35.1 °F 24.8 °F 28.9 °F 78% 30.29 in 10.0 mi NNE 17.3 mph - N/A   Overcast
12:28 PM 37.0 °F 27.7 °F 28.9 °F 73% 30.26 in 10.0 mi North 16.1 mph - N/A   Scattered Clouds
12:53 PM 37.0 °F 26.7 °F 28.9 °F 73% 30.27 in 10.0 mi NNE 19.6 mph 23.0 mph N/A   Partly Cloudy
1:53 PM 37.0 °F 27.0 °F 28.9 °F 73% 30.26 in 10.0 mi NNE 18.4 mph 21.9 mph N/A   Scattered Clouds
2:53 PM 36.0 °F 25.3 °F 27.0 °F 70% 30.24 in 10.0 mi NNE 19.6 mph - N/A   Partly Cloudy
3:53 PM 36.0 °F 27.5 °F 25.0 °F 64% 30.24 in 10.0 mi North 12.7 mph 23.0 mph N/A   Clear
4:53 PM 35.1 °F 25.9 °F 21.0 °F 57% 30.26 in 10.0 mi North 13.8 mph - N/A   Clear
5:53 PM 35.1 °F 25.5 °F 17.1 °F 48% 30.26 in 10.0 mi North 15.0 mph - N/A   Clear
6:53 PM 33.1 °F 24.9 °F 14.0 °F 46% 30.28 in 10.0 mi North 10.4 mph 20.7 mph N/A   Clear
7:53 PM 32.0 °F 23.6 °F 19.9 °F 61% 30.28 in 10.0 mi NNE 10.4 mph - N/A   Clear
8:53 PM 30.9 °F 25.2 °F 21.9 °F 69% 30.28 in 10.0 mi North 5.8 mph - N/A   Clear
9:53 PM 30.9 °F 25.2 °F 21.9 °F 69% 30.28 in 10.0 mi North 5.8 mph - N/A   Clear
10:53 PM 30.9 °F 24.3 °F 23.0 °F 72% 30.29 in 10.0 mi NNW 6.9 mph - N/A   Clear
11:53 PM 28.9 °F 23.9 °F 21.9 °F 75% 30.28 in 10.0 mi NNW 4.6 mph - N/A   Clear